This is the latest recevied weather packets stored in our database for station/object DN9EM-1. If no packets are shown the sender has not sent any weather packets the latest 10 day(s).
| Time | Temp. | Humidity | Pressure | Rain* | Wind** | Luminosity | Snow |
|---|---|---|---|---|---|---|---|
| 1777366272 | 13.33° C | 40% | 1029.8 hPa | 0 mm | - | - | - |
| 1777365669 | 12.78° C | 40% | 1029.9 hPa | 0 mm | - | - | - |
| 1777365067 | 12.78° C | 42% | 1029.8 hPa | 0 mm | - | - | - |
| 1777364464 | 12.22° C | 42% | 1029.7 hPa | 0 mm | - | - | - |
| 1777363862 | 12.22° C | 43% | 1029.6 hPa | 0 mm | - | - | - |
| 1777363259 | 12.22° C | 44% | 1029.6 hPa | 0 mm | - | - | - |
| 1777362656 | 12.22° C | 45% | 1029.5 hPa | 0 mm | - | - | - |
| 1777362054 | 12.22° C | 45% | 1029.5 hPa | 0 mm | - | - | - |
| 1777361451 | 11.67° C | 45% | 1029.4 hPa | 0 mm | - | - | - |
| 1777360849 | 11.67° C | 46% | 1029.3 hPa | 0 mm | - | - | - |
| 1777360246 | 11.67° C | 47% | 1029.4 hPa | 0 mm | - | - | - |
| 1777359643 | 11.11° C | 47% | 1029.4 hPa | 0 mm | - | - | - |
| 1777359041 | 10.56° C | 50% | 1029.3 hPa | 0 mm | - | - | - |
| 1777358438 | 10° C | 53% | 1029.3 hPa | 0 mm | - | - | - |
| 1777357835 | 10° C | 56% | 1029.2 hPa | 0 mm | - | - | - |
| 1777357233 | 9.44° C | 58% | 1029.2 hPa | 0 mm | - | - | - |
| 1777356631 | 8.89° C | 59% | 1029.1 hPa | 0 mm | - | - | - |
| 1777356028 | 8.89° C | 60% | 1028.9 hPa | 0 mm | - | - | - |
| 1777355425 | 8.33° C | 62% | 1029 hPa | 0 mm | - | - | - |
| 1777354823 | 7.78° C | 63% | 1029 hPa | 0 mm | - | - | - |
| 1777354220 | 7.78° C | 63% | 1028.9 hPa | 0 mm | - | - | - |
| 1777353617 | 7.78° C | 63% | 1028.9 hPa | 0 mm | - | - | - |
| 1777353015 | 7.78° C | 63% | 1028.8 hPa | 0 mm | - | - | - |
| 1777352473 | 7.22° C | 64% | 1028.6 hPa | 0 mm | - | - | - |
| 1777351870 | 6.67° C | 65% | 1028.6 hPa | 0 mm | - | - | - |
* Rain latest hour (hover to see other rain measurements)
** Current wind speed in m/s (hover to see current wind gust speed)